Find Starlink 3330

NORAD ID: 50836 Int'l Des: 2022-001 Owner: SPXS Country: US Constellation: starlink operational
LEOCIRCULAR

Live Position

Loading 3D Globe...

About Starlink 3330

Description loading...

Upcoming Passes

Passes for default location (London). Set your location on the main map for personalized predictions.

Altitude History

Loading altitude history...

Two-Line Element Set

1 50836U 22001AK 26106.44118024 .00000030 00000-0 19959-4 0 9996
2 50836 53.2179 9.4248 0001190 87.6424 272.4704 15.08837818235869
Epoch: Apr 16, 2026 • Age: 23 hours

Current Status

Altitude 543.1 km
Velocity 7.59 km/s
Sub-Earth Point -11.72°S, 157.12°W
Launch Date Jan 6, 2022
Age 4.2 years
Type internet

Technical Details

Classification Payload
Mass 297.00 kg
Dry Mass 275.00 kg
Total Mass 297.00 kg
Length 0.20 m
Diameter 2.80 m
Span 9.00 m
Shape Box + pan
Manufacturer SPXS
Bus Type Starlink
Phase Status In Orbit
Owner/State SPXS/US

Most Searched